Change the Weather History Date:

Saturday, May 18, 2013

  Actual Average (KBIV) Record (KBIV)
Temperature  
Mean Temperature 66 °F 59 °F  
Max Temperature 77 °F 69 °F 90 °F (1962)
Min Temperature 55 °F 49 °F 31 °F (1973)
Degree Days  
Heating Degree Days 0 7  
Month to date heating degree days 163  
Since 1 July heating degree days 6042  
Cooling Degree Days 1 1  
Month to date cooling degree days 12  
Year to date cooling degree days 16  
Growing Degree Days 16 (Base 50)    
Moisture  
Dew Point 50 °F    
Average Humidity 59    
Maximum Humidity 94    
Minimum Humidity 45    
Precipitation  
Precipitation 0.00 in 0.10 in 3.19 in (2000)
Month to date precipitation 1.94  
Year to date precipitation 11.35  
Sea Level Pressure  
Sea Level Pressure 30.05 in    
Wind  
Wind Speed 5 mph (East)    
Max Wind Speed 9 mph    
Max Gust Speed 16 mph    
Visibility 10 miles    
Events      
T = Trace of Precipitation, MM = Missing Value Source: NWS Daily Summary

Daily Weather History Graph

Daily Weather History Graph

Search for Another Location

Airport or City:

Trip Planner

Search our weather history database for the weather conditions in past years. The results will help you decide how hot, cold, wet, or windy it might be!

Date:

Astronomy

May. 18, 2013 Rise Set
Actual Time 6:20 AM EDT 9:03 PM EDT
Civil Twilight 5:47 AM EDT 9:35 PM EDT
Nautical Twilight 5:07 AM EDT 10:16 PM EDT
Astronomical Twilight 4:20 AM EDT 11:03 PM EDT
Moon 1:57 PM EDT (5/18) 2:21 AM EDT (5/18)
Length of Visible Light 15h 47m
Length of Day
14h 42m
First Quarter, 55% of the Moon is Illuminated
May 18
First Quarter
May 25
Full
May 31
Last Quarter
Jun 8
New
Jun 16
First Quarter

Hourly Weather History & Observations

Time (EDT) Temp. Dew Point Humidity Pressure Visibility Wind Dir Wind Speed Gust Speed Precip Events Conditions
12:16 AM 60.8 °F 46.4 °F 59% 30.07 in 10.0 mi East 3.5 mph - N/A   Clear
12:36 AM 60.8 °F 46.4 °F 59% 30.07 in 10.0 mi East 4.6 mph - N/A   Clear
12:56 AM 60.8 °F 46.4 °F 59% 30.07 in 10.0 mi East 4.6 mph - N/A   Clear
1:16 AM 60.8 °F 44.6 °F 55% 30.07 in 10.0 mi ESE 4.6 mph - N/A   Clear
1:36 AM 62.6 °F 41.0 °F 45% 30.07 in 10.0 mi ESE 6.9 mph - N/A   Clear
1:56 AM 62.6 °F 42.8 °F 48% 30.06 in 10.0 mi East 8.1 mph - N/A   Clear
2:16 AM 62.6 °F 41.0 °F 45% 30.06 in 10.0 mi ESE 8.1 mph - N/A   Clear
2:36 AM 60.8 °F 41.0 °F 48% 30.06 in 10.0 mi ESE 9.2 mph - N/A   Clear
2:56 AM 60.8 °F 41.0 °F 48% 30.06 in 10.0 mi East 9.2 mph 16.1 mph N/A   Clear
3:16 AM 59.0 °F 41.0 °F 51% 30.06 in 10.0 mi ESE 9.2 mph - N/A   Clear
3:36 AM 59.0 °F 41.0 °F 51% 30.06 in 10.0 mi ESE 9.2 mph - N/A   Clear
3:56 AM 59.0 °F 41.0 °F 51% 30.07 in 10.0 mi East 4.6 mph - N/A   Clear
4:16 AM 57.2 °F 41.0 °F 55% 30.07 in 10.0 mi East 6.9 mph - N/A   Clear
4:36 AM 57.2 °F 41.0 °F 55% 30.07 in 10.0 mi ESE 5.8 mph - N/A   Clear
4:56 AM 55.4 °F 41.0 °F 58% 30.07 in 10.0 mi ESE 3.5 mph - N/A   Clear
5:18 AM 55.4 °F 41.0 °F 58% 30.08 in 10.0 mi East 5.8 mph - N/A   Clear
5:37 AM 55.4 °F 41.0 °F 58% 30.09 in 10.0 mi East 5.8 mph - N/A   Clear
5:58 AM 55.4 °F 41.0 °F 58% 30.10 in 10.0 mi East 4.6 mph - N/A   Mostly Cloudy
6:16 AM 55.4 °F 41.0 °F 58% 30.10 in 10.0 mi East 5.8 mph - N/A   Mostly Cloudy
6:36 AM 55.4 °F 41.0 °F 58% 30.10 in 10.0 mi East 4.6 mph - N/A   Scattered Clouds
6:58 AM 55.4 °F 41.0 °F 58% 30.10 in 10.0 mi East 5.8 mph - N/A   Clear
7:18 AM 55.4 °F 41.0 °F 58% 30.10 in 10.0 mi East 5.8 mph - N/A   Clear
7:38 AM 57.2 °F 41.0 °F 55% 30.10 in 10.0 mi East 6.9 mph - N/A   Clear
7:58 AM 57.2 °F 42.8 °F 59% 30.10 in 10.0 mi East 9.2 mph - N/A   Clear
8:17 AM 59.0 °F 42.8 °F 55% 30.10 in 10.0 mi ESE 5.8 mph - N/A   Scattered Clouds
8:38 AM 59.0 °F 42.8 °F 55% 30.10 in 10.0 mi East 8.1 mph - N/A   Scattered Clouds
8:58 AM 60.8 °F 44.6 °F 55% 30.10 in 10.0 mi ESE 6.9 mph - N/A   Clear
9:18 AM 62.6 °F 44.6 °F 52% 30.10 in 10.0 mi SE 8.1 mph - N/A   Clear
9:43 AM 64.4 °F 46.4 °F 52% 30.10 in 10.0 mi East 9.2 mph - N/A   Clear
9:56 AM 64.4 °F 46.4 °F 52% 30.10 in 10.0 mi ESE 6.9 mph - N/A   Clear
10:17 AM 66.2 °F 48.2 °F 52% 30.09 in 10.0 mi SE 4.6 mph - N/A   Clear
10:39 AM 68.0 °F 50.0 °F 52% 30.08 in 10.0 mi SE 4.6 mph - N/A   Clear
10:58 AM 69.8 °F 50.0 °F 49% 30.07 in 10.0 mi ESE 3.5 mph - N/A   Clear
11:17 AM 71.6 °F 51.8 °F 50% 30.07 in 10.0 mi East 3.5 mph - N/A   Clear
11:39 AM 71.6 °F 53.6 °F 53% 30.07 in 10.0 mi SSE 3.5 mph - N/A   Clear
11:58 AM 73.4 °F 55.4 °F 53% 30.07 in 10.0 mi East 5.8 mph - N/A   Clear
12:19 PM 73.4 °F 55.4 °F 53% 30.07 in 10.0 mi SSE 4.6 mph - N/A   Mostly Cloudy
12:41 PM 75.2 °F 55.4 °F 50% 30.07 in 10.0 mi Calm Calm - N/A   Overcast
12:59 PM - - N/A% - - Calm Calm - N/A   Unknown
1:18 PM - - N/A% - 10.0 mi Calm Calm - N/A   Mostly Cloudy
1:40 PM 75.2 °F 55.4 °F 50% 30.05 in 10.0 mi NW 5.8 mph - N/A   Overcast
1:58 PM 75.2 °F 55.4 °F 50% 30.05 in 10.0 mi West 8.1 mph - N/A   Overcast
2:17 PM 73.4 °F 55.4 °F 53% 30.04 in 10.0 mi West 6.9 mph - N/A   Mostly Cloudy
2:40 PM 75.2 °F 55.4 °F 50% 30.03 in 10.0 mi WNW 5.8 mph - N/A   Mostly Cloudy
2:59 PM - - N/A% - - North - - N/A   Unknown
3:17 PM 77.0 °F 55.4 °F 47% 30.03 in 10.0 mi WNW 6.9 mph - N/A   Mostly Cloudy
3:37 PM 75.2 °F 55.4 °F 50% 30.03 in 10.0 mi WNW 6.9 mph - N/A   Mostly Cloudy
3:59 PM 73.4 °F 55.4 °F 53% 30.03 in 10.0 mi NW 6.9 mph - N/A   Overcast
4:18 PM 71.6 °F 55.4 °F 57% 30.02 in 10.0 mi NW 6.9 mph - N/A   Overcast
4:39 PM 73.4 °F 57.2 °F 57% 30.02 in 10.0 mi North 6.9 mph - N/A   Mostly Cloudy
4:58 PM 71.6 °F 57.2 °F 60% 30.02 in 10.0 mi NNW 6.9 mph - N/A   Mostly Cloudy
5:17 PM 71.6 °F 57.2 °F 60% 30.02 in 10.0 mi NNW 3.5 mph - N/A   Mostly Cloudy
5:38 PM 71.6 °F 57.2 °F 60% 30.02 in 10.0 mi NW 5.8 mph - N/A   Overcast
5:58 PM 69.8 °F 57.2 °F 64% 30.01 in 10.0 mi North 6.9 mph - N/A   Mostly Cloudy
6:17 PM 71.6 °F 57.2 °F 60% 30.01 in 10.0 mi NNW 5.8 mph - N/A   Overcast
6:43 PM 73.4 °F 57.2 °F 57% 30.00 in 10.0 mi NNE 4.6 mph - N/A   Overcast
6:59 PM 73.4 °F 57.2 °F 57% 30.00 in 10.0 mi North 3.5 mph - N/A   Mostly Cloudy
7:18 PM 73.4 °F 57.2 °F 57% 29.99 in 10.0 mi North 3.5 mph - N/A   Mostly Cloudy
7:38 PM 75.2 °F 59.0 °F 57% 29.99 in 10.0 mi Calm Calm - N/A   Scattered Clouds
7:58 PM 73.4 °F 57.2 °F 57% 29.99 in 10.0 mi Calm Calm - N/A   Clear
8:18 PM 73.4 °F 59.0 °F 61% 29.99 in 10.0 mi Calm Calm - N/A   Clear
8:38 PM 71.6 °F 59.0 °F 64% 29.99 in 10.0 mi Calm Calm - N/A   Clear
8:58 PM 68.0 °F 59.0 °F 73% 29.99 in 10.0 mi Calm Calm - N/A   Clear
9:18 PM 68.0 °F 59.0 °F 73% 29.99 in 10.0 mi Calm Calm - N/A   Clear
9:38 PM - - N/A% - 10.0 mi Calm Calm - N/A   Clear
9:58 PM 64.4 °F 59.0 °F 83% 30.00 in 10.0 mi Calm Calm - N/A   Clear
10:18 PM 62.6 °F 59.0 °F 88% 30.00 in 10.0 mi Calm Calm - N/A   Scattered Clouds
10:38 PM 62.6 °F 59.0 °F 88% 30.00 in 10.0 mi Calm Calm - N/A   Scattered Clouds
10:59 PM 62.6 °F 59.0 °F 88% 30.01 in 10.0 mi Calm Calm - N/A   Clear
11:18 PM 60.8 °F 59.0 °F 94% 30.00 in 7.0 mi Calm Calm - N/A   Clear
11:38 PM 60.8 °F 59.0 °F 94% 30.00 in 7.0 mi Calm Calm - N/A   Clear
11:58 PM 59.0 °F 57.2 °F 94% 30.00 in 7.0 mi Calm Calm - N/A   Clear